DW7745 Weather Reports


time (UTC)temp
F
wind
direction
speed
knots
gust
knots
rain 1hr
in
rain 24hr
in
rain mn
in
humidity
%
barometer
mb
20260510104531 70 146 3.5 9.6 0.00 0.00 0.00 82 1008.3
20260510103029 70 148 1.7 6.1 0.00 0.00 0.00 81 1008.2
20260510101526 71 154 3.5 7.8 0.00 0.00 0.00 79 1008.2
20260510100025 72 138 1.7 7.8 0.00 0.00 0.00 78 1008.6
20260510094523 72 188 3.5 7.8 0.00 0.00 0.00 78 1008.6
20260510093021 72 224 2.6 5.2 0.00 0.00 0.00 76 1008.6
20260510091519 73 112 1.7 7.0 0.00 0.00 0.00 75 1008.6
20260510090018 73 150 2.6 10.4 0.00 0.00 0.00 75 1008.4
20260510084517 73 215 2.6 5.2 0.00 0.00 0.00 76 1008.4
20260510083017 72 172 1.7 6.1 0.00 0.00 0.00 77 1008.4
20260510081515 73 138 0.9 3.5 0.00 0.00 0.00 80 1008.4
20260510080012 73 137 1.7 4.3 0.00 0.00 0.00 77 1008.4
20260510074513 73 181 1.7 6.1 0.00 0.00 0.00 79 1008.2
20260510073010 73 142 1.7 4.3 0.00 0.00 0.00 82 1008.3
20260510071506 74 143 1.7 5.2 0.00 0.00 0.00 80 1008.3
20260510070005 75 219 2.6 8.7 0.00 0.00 0.00 79 1008.2
20260510064504 75 170 2.6 8.7 0.00 0.00 0.00 79 1008.3
20260510063003 75 235 2.6 7.0 0.00 0.00 0.00 79 1008.2
20260510061501 74 155 0.9 5.2 0.00 0.00 0.00 82 1008.2
20260510060100 74 171 0.9 2.6 0.00 0.00 0.00 82 1008.2
20260510054559 74 229 0.9 4.3 0.00 0.00 0.00 82 1008.3
20260510053057 75 158 2.6 4.3 0.00 0.00 0.00 82 1008.2
20260510051556 75 114 1.7 3.5 0.00 0.00 0.00 82 1008.2
20260510050052 75 115 1.7 3.5 0.00 0.00 0.00 82 1008.1
20260510044552 73 132 0.0 0.9 0.00 0.00 0.00 84 1008.1
20260510043105 74 134 0.0 0.0 0.00 0.00 0.00 82 1007.9
20260510041550 75 134 0.0 0.0 0.00 0.00 0.00 81 1007.9
20260510040053 76 134 0.0 1.7 0.00 0.00 0.00 79 1007.8
20260510034548 77 130 0.9 2.6 0.00 0.00 0.00 77 1007.7
20260510033052 77 130 1.7 3.5 0.00 0.00 0.00 76 1007.5
20260510031554 78 127 2.6 3.5 0.00 0.00 0.00 75 1007.4
20260510030047 78 120 0.9 2.6 0.00 0.00 0.00 74 1007.2
20260510024546 78 127 1.7 3.5 0.00 0.00 0.00 72 1007.1
20260510023045 79 137 1.7 3.5 0.00 0.00 0.00 72 1006.8
20260510021544 79 141 1.7 2.6 0.00 0.00 0.00 70 1006.8
20260510020044 80 146 2.6 5.2 0.00 0.00 0.00 69 1006.7
20260510014543 80 136 3.5 5.2 0.00 0.00 0.00 67 1006.5
20260510013043 80 133 2.6 4.3 0.00 0.00 0.00 65 1006.4
20260510011543 81 123 1.7 4.3 0.00 0.00 0.00 63 1006.2
20260510010042 82 115 2.6 4.3 0.00 0.00 0.00 60 1006.0
20260510004541 83 129 1.7 5.2 0.00 0.00 0.00 53 1005.9
20260510003046 84 123 2.6 5.2 0.00 0.00 0.00 47 1005.7
20260510001541 85 132 2.6 8.7 0.00 0.00 0.00 47 1005.6
20260510000039 85 159 1.7 5.2 0.00 0.00 0.00 51 1005.5
20260509234538 85 113 2.6 4.3 0.00 0.00 0.00 54 1005.4
20260509233037 86 120 2.6 8.7 0.00 0.00 0.00 54 1005.3
20260509231536 87 148 1.7 5.2 0.00 0.00 0.00 52 1005.1
20260509230036 85 134 2.6 7.0 0.00 0.00 0.00 51 1005.1
20260509224547 85 153 1.7 4.3 0.00 0.00 0.00 54 1005.2
20260509223037 84 152 4.3 9.6 0.00 0.00 0.00 56 1005.1
20260509221535 81 158 7.8 13.9 0.00 0.00 0.00 61 1005.4
20260509220031 86 108 7.0 11.3 0.00 0.00 0.00 58 1005.5
20260509214531 91 121 0.9 1.7 0.00 0.00 0.00 51 1005.2
20260509213030 90 107 1.7 3.5 0.00 0.00 0.00 53 1005.4
20260509211528 91 110 0.9 3.5 0.00 0.00 0.00 50 1005.4
20260509210031 90 340 0.0 4.3 0.00 0.00 0.00 55 1005.6
20260509204521 89 98 1.7 2.6 0.00 0.00 0.00 58 1005.8
20260509203019 88 67 1.7 4.3 0.00 0.00 0.00 58 1006.1
20260509201516 87 101 1.7 3.5 0.00 0.00 0.00 60 1006.3
20260509200014 87 110 0.9 3.5 0.00 0.00 0.00 62 1006.6
20260509194513 87 98 2.6 3.5 0.00 0.00 0.00 65 1006.6
20260509193013 87 130 1.7 3.5 0.00 0.00 0.00 61 1006.9
20260509191508 86 157 0.9 1.7 0.00 0.00 0.00 65 1007.2
20260509190007 87 102 0.9 2.6 0.00 0.00 0.00 63 1007.6
20260509184511 87 116 0.9 2.6 0.00 0.00 0.00 68 1007.7
20260509183007 88 58 0.9 3.5 0.00 0.00 0.00 62 1007.7
20260509181504 87 173 0.9 3.5 0.00 0.00 0.00 66 1007.9
20260509180001 86 18 1.7 4.3 0.00 0.00 0.00 64 1008.1
20260509174559 86 40 0.9 2.6 0.00 0.00 0.00 69 1008.3
20260509173055 84 11 0.9 3.5 0.00 0.00 0.00 72 1008.5
20260509171555 83 9 0.0 5.2 0.00 0.00 0.00 75 1008.7
20260509170057 83 169 0.0 1.7 0.00 0.00 0.00 78 1008.7
20260509164554 80 28 0.9 3.5 0.00 0.00 0.00 80 1008.6
20260509163045 80 62 0.9 3.5 0.00 0.00 0.00 84 1008.7
20260509161546 78 277 0.9 3.5 0.00 0.00 0.00 87 1009.0
20260509160039 76 9 0.0 2.6 0.00 0.00 0.00 89 1009.0
20260509154537 76 17 0.0 1.7 0.00 0.00 0.00 90 1009.0
20260509153033 74 239 0.9 4.3 0.00 0.00 0.00 92 1009.0
20260509151528 73 180 2.6 5.2 0.00 0.00 0.00 93 1008.6
20260509150034 72 246 0.0 2.6 0.00 0.00 0.00 93 1009.4
20260509144531 72 139 0.0 1.7 0.00 0.00 0.00 93 1009.6
20260509143022 72 213 0.9 1.7 0.00 0.00 0.00 93 1009.5
20260509141522 72 224 0.0 0.0 0.00 0.00 0.00 93 1009.1
20260509140017 72 180 0.0 0.0 0.00 0.00 0.00 94 1008.7
20260509134515 72 181 0.0 0.0 0.00 0.00 0.00 94 1008.6
20260509133013 72 223 0.0 0.0 0.00 0.00 0.00 94 1008.7
20260509131510 71 223 0.0 0.0 0.00 0.00 0.00 93 1008.9
20260509130015 71 236 0.0 1.7 0.00 0.00 0.00 94 1008.7
20260509124510 71 143 1.7 2.6 0.00 0.00 0.00 94 1008.2
20260509123010 71 115 0.0 0.0 0.00 0.00 0.00 94 1008.5
20260509121516 71 115 0.0 0.0 0.00 0.00 0.00 94 1008.8
20260509120008 71 115 0.0 0.0 0.00 0.00 0.00 94 1008.9
20260509114512 71 115 0.0 1.7 0.00 0.00 0.00 93 1008.7
20260509113005 71 249 0.0 3.5 0.00 0.00 0.00 93 1008.7
20260509111504 71 86 0.0 2.6 0.00 0.00 0.00 93 1008.7
20260509110002 71 25 0.0 0.9 0.00 0.00 0.00 93 1008.4